FW6610 Weather Reports


Display with metric or nautical units.
time (UTC)temp
F
wind
direction
speed
MPH
gust
MPH
rain 1hr
in
rain 24hr
in
rain mn
in
humidity
%
barometer
mb
20210927052554 47 274 0.0 1.0 0.00 0.01 0.00 95 1014.2
20210927052027 47 0 0.0 1.0 0.00 0.01 0.00 95 1014.1
20210927051530 47 0 0.0 1.0 0.00 0.01 0.00 95 1014.0
20210927051027 47 0 0.0 1.0 0.00 0.01 0.00 95 1013.9
20210927050553 48 0 0.0 1.0 0.00 0.01 0.00 95 1013.9
20210927050141 48 0 0.0 1.0 0.00 0.01 0.00 95 1013.9
20210927045552 48 0 0.0 1.0 0.00 0.01 0.00 95 1013.8
20210927045031 47 281 0.0 1.0 0.00 0.01 0.00 96 1013.9
20210927044605 47 217 0.0 1.0 0.00 0.01 0.00 95 1014.0
20210927044038 47 0 0.0 0.0 0.00 0.01 0.00 95 1013.9
20210927043534 48 0 0.0 0.0 0.00 0.01 0.00 95 1013.9
20210927043042 48 0 0.0 0.0 0.00 0.01 0.00 95 1013.9
20210927042536 48 198 0.0 0.0 0.00 0.01 0.00 95 1014.0
20210927042032 47 176 0.0 0.0 0.00 0.01 0.00 95 1014.0
20210927041547 47 0 0.0 0.0 0.00 0.01 0.00 95 1013.9
20210927041027 47 0 0.0 0.0 0.00 0.01 0.00 95 1014.0
20210927040529 48 0 0.0 0.0 0.00 0.01 0.00 95 1014.0
20210927040101 48 0 0.0 1.0 0.00 0.01 0.00 95 1014.0
20210927035525 48 0 0.0 1.0 0.00 0.01 0.01 95 1014.0
20210927035027 48 355 0.0 1.0 0.00 0.01 0.01 95 1014.1
20210927034528 48 354 0.0 1.0 0.00 0.01 0.01 95 1014.0
20210927034036 48 0 0.0 1.0 0.00 0.01 0.01 95 1014.0
20210927033534 48 0 0.0 1.0 0.00 0.01 0.01 95 1014.0
20210927033046 48 0 0.0 1.0 0.00 0.01 0.01 95 1013.9
20210927032539 48 0 0.0 0.0 0.00 0.01 0.01 95 1013.9
20210927032026 48 0 0.0 0.0 0.00 0.01 0.01 95 1013.8
20210927031607 48 0 0.0 0.0 0.00 0.01 0.01 95 1013.8
20210927031028 48 0 0.0 0.0 0.00 0.01 0.01 95 1013.7
20210927030541 48 0 0.0 0.0 0.00 0.01 0.01 95 1013.8
20210927030031 48 0 0.0 0.0 0.00 0.01 0.01 95 1013.8
20210927025530 48 0 0.0 0.0 0.00 0.01 0.01 95 1013.8
20210927025025 48 0 0.0 0.0 0.00 0.01 0.01 94 1013.7
20210927024555 48 0 0.0 0.0 0.00 0.01 0.01 94 1013.7
20210927024027 48 0 0.0 1.0 0.00 0.01 0.01 94 1013.7
20210927023540 49 0 0.0 1.0 0.00 0.01 0.01 94 1013.6
20210927023043 49 0 0.0 0.0 0.00 0.01 0.01 94 1013.7
20210927022528 49 0 0.0 0.0 0.00 0.01 0.01 94 1013.7
20210927022027 49 0 0.0 0.0 0.00 0.01 0.01 94 1013.5
20210927021549 49 0 0.0 0.0 0.00 0.01 0.01 94 1013.6
20210927021036 49 0 0.0 0.0 0.00 0.01 0.01 93 1013.5
20210927020535 49 0 0.0 0.0 0.00 0.01 0.01 92 1013.4
20210927020032 49 0 0.0 1.0 0.00 0.01 0.01 93 1013.4
20210927015541 50 0 0.0 1.0 0.00 0.01 0.01 93 1013.4
20210927015027 50 0 0.0 1.0 0.00 0.01 0.01 92 1013.4
20210927014612 50 0 0.0 1.0 0.00 0.01 0.01 92 1013.3
20210927014042 50 0 0.0 0.0 0.00 0.01 0.01 91 1013.3
20210927013528 50 0 0.0 0.0 0.00 0.01 0.01 91 1013.3
20210927013038 51 0 0.0 0.0 0.00 0.01 0.01 91 1013.2
20210927012534 51 0 0.0 0.0 0.00 0.01 0.01 91 1013.2
20210927012042 51 0 0.0 0.0 0.00 0.01 0.01 91 1013.3
20210927011540 51 0 0.0 1.0 0.00 0.01 0.01 90 1013.3
20210927011026 52 0 0.0 1.0 0.00 0.01 0.01 90 1013.2
20210927010537 52 354 0.0 1.0 0.00 0.01 0.01 89 1013.2
20210927010046 51 223 0.0 1.0 0.00 0.01 0.01 88 1013.1
20210927005531 51 0 0.0 0.0 0.00 0.01 0.01 88 1013.1
20210927005039 51 0 0.0 0.0 0.00 0.01 0.01 88 1013.1
20210927004539 51 0 0.0 0.0 0.00 0.01 0.01 88 1013.1
20210927004028 51 0 0.0 0.0 0.00 0.01 0.01 88 1013.1
20210927003528 52 0 0.0 0.0 0.00 0.01 0.01 88 1013.0
20210927003054 52 0 0.0 0.0 0.00 0.01 0.01 88 1013.0
20210927002538 52 0 0.0 0.0 0.00 0.01 0.01 88 1012.9
20210927002047 52 0 0.0 1.0 0.00 0.01 0.01 88 1012.8
20210927001627 52 0 0.0 1.0 0.00 0.01 0.01 87 1012.8
20210927001028 53 0 0.0 1.0 0.00 0.01 0.01 88 1012.7
20210927000545 53 0 0.0 0.0 0.00 0.01 0.01 87 1012.6
20210927000113 53 0 0.0 1.0 0.00 0.01 0.01 86 1012.5
20210926235535 53 0 0.0 1.0 0.00 0.01 0.01 86 1012.5
20210926235045 53 0 0.0 1.0 0.00 0.01 0.01 86 1012.4
20210926234554 53 0 0.0 1.0 0.00 0.01 0.01 86 1012.3
20210926234027 54 222 0.0 1.0 0.00 0.01 0.01 85 1012.3
20210926233541 54 0 0.0 1.0 0.00 0.01 0.01 85 1012.2
20210926233054 54 222 0.0 0.0 0.00 0.01 0.01 83 1012.1
20210926232530 55 0 0.0 1.0 0.00 0.01 0.01 83 1012.2
20210926232045 55 0 0.0 1.0 0.00 0.01 0.01 82 1012.0
20210926231557 56 0 0.0 1.0 0.00 0.01 0.01 79 1012.0
20210926231030 56 0 0.0 1.0 0.00 0.01 0.01 79 1012.0
20210926230535 57 0 0.0 1.0 0.00 0.01 0.01 79 1012.0
20210926230033 57 0 0.0 1.0 0.00 0.01 0.01 76 1011.9
20210926225527 58 222 0.0 1.0 0.00 0.01 0.01 75 1011.8
20210926225028 59 222 0.0 1.0 0.00 0.01 0.01 73 1011.8
20210926224543 60 0 0.0 1.0 0.00 0.01 0.01 70 1011.8
20210926224027 60 0 0.0 1.0 0.00 0.01 0.01 66 1011.7
20210926223530 61 259 0.0 1.0 0.00 0.01 0.01 64 1011.5
20210926223035 62 0 0.0 3.0 0.00 0.01 0.01 63 1011.6
20210926222528 62 0 0.0 3.0 0.00 0.01 0.01 61 1011.6
20210926222031 62 329 0.0 1.0 0.00 0.01 0.01 62 1011.5
20210926221551 63 0 0.0 1.0 0.00 0.01 0.01 63 1011.5
20210926221035 64 328 0.0 3.0 0.00 0.01 0.01 61 1011.3
20210926220529 64 318 1.0 3.0 0.00 0.01 0.01 60 1011.3
20210926220050 64 276 0.0 4.0 0.00 0.01 0.01 59 1011.2
20210926215528 65 0 1.0 5.0 0.00 0.01 0.01 58 1011.3
20210926215039 65 226 1.0 5.0 0.00 0.01 0.01 58 1011.3
20210926214555 66 1 2.0 4.0 0.00 0.01 0.01 55 1011.4
20210926214038 66 352 2.0 7.0 0.00 0.01 0.01 55 1011.3
20210926213529 67 322 2.0 7.0 0.00 0.01 0.01 54 1011.2
20210926213040 67 323 3.0 9.0 0.00 0.01 0.01 53 1011.1
20210926212548 67 327 4.0 12.0 0.00 0.01 0.01 54 1011.2
20210926212033 67 267 3.0 12.0 0.00 0.01 0.01 52 1010.9
20210926211540 67 242 4.0 10.0 0.00 0.01 0.01 51 1011.0
20210926211053 67 355 3.0 11.0 0.00 0.01 0.01 51 1011.0
20210926210531 67 303 4.0 13.0 0.00 0.01 0.01 51 1011.0
20210926210044 67 319 3.0 13.0 0.00 0.01 0.01 53 1011.0
20210926205535 67 307 3.0 7.0 0.00 0.01 0.01 54 1010.9
20210926205028 67 343 2.0 8.0 0.00 0.01 0.01 53 1010.8
20210926204537 67 356 4.0 8.0 0.00 0.01 0.01 53 1010.7
20210926204029 67 311 3.0 7.0 0.00 0.01 0.01 52 1010.8
20210926203540 67 304 2.0 13.0 0.00 0.01 0.01 55 1010.6
20210926203110 67 42 2.0 13.0 0.00 0.01 0.01 54 1010.7
20210926202527 67 290 4.0 10.0 0.00 0.01 0.01 52 1010.6
20210926202028 67 319 2.0 6.0 0.00 0.01 0.01 54 1010.7
20210926201537 67 27 3.0 6.0 0.00 0.01 0.01 52 1010.7
20210926201032 68 316 4.0 8.0 0.00 0.01 0.01 52 1010.7
20210926200535 68 302 2.0 10.0 0.00 0.01 0.01 53 1010.6
20210926200125 68 309 4.0 12.0 0.00 0.01 0.01 52 1010.4
20210926195528 68 315 5.0 13.0 0.00 0.01 0.01 51 1010.4
20210926195027 69 63 6.0 13.0 0.00 0.01 0.01 51 1010.4
20210926194541 69 70 3.0 10.0 0.00 0.01 0.01 50 1010.4
20210926194027 69 18 3.0 10.0 0.00 0.01 0.01 54 1010.4
20210926193528 69 325 4.0 10.0 0.00 0.01 0.01 51 1010.4
20210926193042 69 342 3.0 12.0 0.00 0.01 0.01 50 1010.3
20210926192532 69 358 3.0 15.0 0.00 0.01 0.01 50 1010.3
20210926192034 69 6 3.0 15.0 0.00 0.01 0.01 48 1010.3
20210926191600 69 272 5.0 14.0 0.00 0.01 0.01 48 1010.4
20210926191028 69 300 6.0 14.0 0.00 0.01 0.01 48 1010.2
20210926190528 69 324 4.0 10.0 0.00 0.01 0.01 47 1010.2
20210926190115 69 285 5.0 13.0 0.00 0.01 0.01 49 1010.3
20210926185528 69 299 5.0 13.0 0.00 0.01 0.01 49 1010.2
20210926185031 68 354 3.0 14.0 0.00 0.01 0.01 49 1010.4
20210926184612 69 314 5.0 15.0 0.00 0.01 0.01 47 1010.4
20210926184028 69 338 5.0 15.0 0.00 0.01 0.01 46 1010.3
20210926183533 69 324 5.0 11.0 0.00 0.01 0.01 46 1010.1
20210926183120 69 14 4.0 11.0 0.00 0.01 0.01 49 1010.1
20210926182528 69 340 3.0 16.0 0.00 0.01 0.01 49 1010.1
20210926182028 69 280 5.0 16.0 0.00 0.01 0.01 47 1010.0
20210926181556 69 319 5.0 15.0 0.00 0.01 0.01 46 1010.2
20210926181027 69 245 6.0 12.0 0.00 0.01 0.01 49 1010.2
20210926180529 69 281 4.0 10.0 0.00 0.01 0.01 51 1010.2
20210926180120 69 314 6.0 15.0 0.00 0.01 0.01 48 1010.2
20210926175527 69 34 3.0 15.0 0.00 0.01 0.01 48 1010.2
20210926175034 69 287 5.0 15.0 0.00 0.01 0.01 48 1010.2
20210926174544 69 322 3.0 16.0 0.00 0.01 0.01 48 1010.3
20210926174026 69 336 6.0 18.0 0.00 0.01 0.01 47 1010.3
20210926173532 69 352 6.0 18.0 0.00 0.01 0.01 48 1010.3
20210926173114 69 34 5.0 20.0 0.00 0.01 0.01 45 1010.3
20210926172530 68 274 7.0 20.0 0.00 0.01 0.01 44 1010.3
20210926172045 69 305 8.0 16.0 0.00 0.01 0.01 46 1010.4
20210926171547 69 4 5.0 16.0 0.00 0.01 0.01 49 1010.6
20210926171047 68 330 7.0 16.0 0.00 0.01 0.01 44 1010.6
20210926170608 68 349 6.0 15.0 0.00 0.01 0.01 44 1010.5
20210926170048 68 339 7.0 21.0 0.00 0.01 0.01 45 1010.7
20210926165526 69 325 7.0 21.0 0.00 0.01 0.01 43 1010.7
20210926165030 69 360 6.0 17.0 0.00 0.01 0.01 42 1010.8
20210926164547 69 345 5.0 17.0 0.00 0.01 0.01 44 1010.4
20210926164047 69 293 6.0 15.0 0.00 0.01 0.01 44 1010.7
20210926163527 69 27 5.0 15.0 0.00 0.01 0.01 43 1010.6
20210926163058 69 14 5.0 14.0 0.00 0.01 0.01 43 1010.7
20210926162530 69 252 4.0 13.0 0.00 0.01 0.01 43 1010.7
20210926162027 69 322 3.0 12.0 0.00 0.01 0.01 46 1010.7
20210926161625 69 302 5.0 12.0 0.00 0.01 0.01 44 1010.7
20210926161028 68 243 3.0 12.0 0.00 0.01 0.01 46 1010.6
20210926160528 68 290 6.0 13.0 0.00 0.01 0.01 44 1010.7
20210926160038 68 314 6.0 16.0 0.00 0.01 0.01 44 1010.7
20210926155527 68 314 8.0 16.0 0.00 0.01 0.01 44 1010.7
20210926155026 68 312 5.0 14.0 0.00 0.01 0.01 44 1010.7
20210926154554 68 306 6.0 15.0 0.00 0.01 0.01 41 1010.9
20210926154028 68 159 5.0 15.0 0.00 0.01 0.01 48 1010.6
20210926153528 68 314 5.0 12.0 0.00 0.01 0.01 48 1010.7
20210926153101 68 302 4.0 12.0 0.00 0.01 0.01 48 1010.7
20210926152532 68 307 6.0 10.0 0.00 0.01 0.01 48 1010.7
20210926152027 68 307 4.0 10.0 0.00 0.01 0.01 48 1010.5
20210926151555 68 19 4.0 10.0 0.00 0.01 0.01 50 1010.7
20210926151028 68 316 3.0 14.0 0.00 0.01 0.01 56 1010.6
20210926150534 67 319 5.0 14.0 0.00 0.01 0.01 52 1010.7
20210926150126 67 285 4.0 10.0 0.00 0.01 0.01 53 1010.6
20210926145532 67 293 3.0 7.0 0.00 0.01 0.01 53 1010.7
20210926145027 67 349 3.0 8.0 0.00 0.01 0.01 55 1010.7
20210926144540 67 353 2.0 8.0 0.00 0.01 0.01 55 1010.8
20210926144027 67 299 3.0 12.0 0.00 0.01 0.01 59 1010.8
20210926143538 66 335 4.0 12.0 0.00 0.01 0.01 55 1010.8
20210926143144 66 321 4.0 10.0 0.00 0.01 0.01 58 1010.9
20210926142533 66 299 4.0 9.0 0.00 0.01 0.01 62 1010.9
20210926142026 66 289 3.0 9.0 0.00 0.01 0.01 59 1010.9
20210926141544 65 56 3.0 7.0 0.00 0.01 0.01 64 1010.8
20210926141035 65 277 2.0 10.0 0.00 0.01 0.01 66 1010.9
20210926140532 65 293 3.0 10.0 0.00 0.01 0.01 66 1010.7
20210926140051 64 18 2.0 9.0 0.00 0.01 0.01 69 1010.7
20210926135527 64 6 2.0 7.0 0.00 0.01 0.01 70 1010.8
20210926135028 64 283 2.0 8.0 0.00 0.01 0.01 73 1010.9
20210926134603 64 302 3.0 8.0 0.00 0.01 0.01 70 1010.8
20210926134027 63 276 1.0 5.0 0.00 0.01 0.01 73 1010.9
20210926133527 63 327 2.0 6.0 0.00 0.01 0.01 75 1011.0
20210926133034 63 32 2.0 6.0 0.00 0.01 0.01 80 1010.8
20210926132541 62 293 2.0 5.0 0.00 0.01 0.01 80 1010.7
20210926132042 61 36 0.0 2.0 0.00 0.01 0.01 87 1010.8
20210926131613 60 97 0.0 1.0 0.00 0.01 0.01 92 1010.9
20210926131028 59 124 0.0 1.0 0.00 0.01 0.01 95 1010.8
20210926130529 58 127 0.0 1.0 0.00 0.01 0.01 98 1010.8
20210926130131 57 158 0.0 0.0 0.00 0.01 0.01 98 1010.7
20210926125527 57 0 0.0 0.0 0.00 0.01 0.01 98 1010.7
20210926125033 57 0 0.0 1.0 0.00 0.01 0.01 98 1010.6
20210926124629 56 0 0.0 1.0 0.00 0.01 0.01 98 1010.6
20210926124038 56 0 0.0 0.0 0.00 0.01 0.01 98 1010.6
20210926123528 56 161 0.0 0.0 0.00 0.01 0.01 98 1010.6
20210926123037 55 0 0.0 0.0 0.00 0.01 0.01 98 1010.6
20210926122527 55 0 0.0 1.0 0.00 0.01 0.01 98 1010.7
20210926122037 54 0 0.0 1.0 0.00 0.01 0.01 98 1010.7
20210926121549 54 211 0.0 1.0 0.01 0.01 0.01 97 1010.8
20210926121033 53 0 0.0 0.0 0.01 0.01 0.01 97 1010.8
20210926120535 53 0 0.0 1.0 0.01 0.01 0.01 97 1010.9
20210926120048 53 0 0.0 1.0 0.01 0.01 0.01 97 1010.8
20210926115528 52 0 0.0 1.0 0.01 0.01 0.01 97 1010.7
20210926115026 52 0 0.0 1.0 0.01 0.01 0.01 97 1010.9
20210926114545 52 255 0.0 1.0 0.01 0.01 0.01 97 1010.8
20210926114027 52 0 0.0 1.0 0.01 0.01 0.01 97 1010.7
20210926113543 52 255 0.0 0.0 0.01 0.01 0.01 97 1010.7
20210926113110 52 0 0.0 1.0 0.01 0.01 0.01 97 1010.7
20210926112536 52 0 0.0 1.0 0.01 0.01 0.01 97 1010.6
20210926112053 52 0 0.0 0.0 0.01 0.01 0.01 97 1010.7
20210926111605 52 0 0.0 0.0 0.00 0.00 0.00 97 1010.5
20210926111027 52 0 0.0 0.0 0.00 0.00 0.00 97 1010.6
20210926110550 52 0 0.0 1.0 0.00 0.00 0.00 96 1010.6
20210926110117 52 0 0.0 1.0 0.00 0.00 0.00 96 1010.6
20210926105526 52 255 0.0 1.0 0.00 0.00 0.00 96 1010.4
20210926105030 52 0 0.0 1.0 0.00 0.00 0.00 97 1010.4
20210926104535 52 0 0.0 1.0 0.00 0.00 0.00 97 1010.5
20210926104028 52 0 0.0 1.0 0.00 0.00 0.00 97 1010.6
20210926103527 52 0 0.0 0.0 0.00 0.00 0.00 97 1010.5
20210926103051 53 0 0.0 0.0 0.00 0.00 0.00 97 1010.7
20210926102529 53 0 0.0 0.0 0.00 0.00 0.00 97 1010.6
20210926102028 53 0 0.0 0.0 0.00 0.00 0.00 97 1010.5
20210926101546 53 0 0.0 0.0 0.00 0.00 0.00 97 1010.5
20210926101026 52 0 0.0 0.0 0.00 0.00 0.00 97 1010.7
20210926100530 52 0 0.0 0.0 0.00 0.00 0.00 97 1010.6
20210926100041 52 0 0.0 0.0 0.00 0.00 0.00 97 1010.6
20210926095546 52 0 0.0 0.0 0.00 0.00 0.00 97 1010.4
20210926095033 52 0 0.0 0.0 0.00 0.00 0.00 96 1010.4
20210926094616 52 0 0.0 0.0 0.00 0.00 0.00 96 1010.4
20210926094028 53 0 0.0 0.0 0.00 0.00 0.00 96 1010.3
20210926093530 53 0 0.0 0.0 0.00 0.00 0.00 96 1010.3
20210926093131 53 0 0.0 0.0 0.00 0.00 0.00 97 1010.2
20210926092614 53 0 0.0 0.0 0.00 0.00 0.00 97 1010.2
20210926092054 53 313 0.0 1.0 0.00 0.00 0.00 97 1010.2
20210926091534 53 0 0.0 1.0 0.00 0.00 0.00 97 1010.2
20210926091029 53 56 0.0 1.0 0.00 0.00 0.00 97 1010.4
20210926090531 53 0 0.0 1.0 0.00 0.00 0.00 97 1010.5
20210926090053 53 0 0.0 1.0 0.00 0.00 0.00 97 1010.6
20210926085529 53 0 0.0 1.0 0.00 0.00 0.00 97 1010.6
20210926085033 53 63 0.0 1.0 0.00 0.00 0.00 97 1010.6
20210926084549 53 0 0.0 1.0 0.00 0.00 0.00 97 1010.7
20210926084030 53 0 0.0 1.0 0.00 0.00 0.00 97 1010.8
20210926083528 53 0 0.0 1.0 0.00 0.00 0.00 97 1010.9
20210926083031 53 63 0.0 1.0 0.00 0.00 0.00 97 1010.8
20210926082541 53 0 0.0 0.0 0.00 0.00 0.00 97 1010.7
20210926082029 53 0 0.0 1.0 0.00 0.00 0.00 97 1010.8
20210926081551 53 0 0.0 1.0 0.00 0.00 0.00 97 1010.9
20210926081026 53 0 0.0 1.0 0.00 0.00 0.00 97 1010.8
20210926080535 53 0 0.0 1.0 0.00 0.00 0.00 97 1010.8
20210926080037 53 0 0.0 1.0 0.00 0.00 0.00 97 1010.7
20210926075541 53 0 0.0 1.0 0.00 0.00 0.00 97 1010.8
20210926075028 52 0 0.0 0.0 0.00 0.00 0.00 97 1010.9
20210926074536 52 0 0.0 0.0 0.00 0.00 0.00 97 1010.8
20210926074027 52 0 0.0 1.0 0.00 0.00 0.00 97 1010.8
20210926073527 52 0 0.0 1.0 0.00 0.00 0.00 97 1010.8
20210926073037 52 0 0.0 0.0 0.00 0.00 0.00 97 1010.8
20210926072601 52 0 0.0 0.0 0.00 0.00 0.00 97 1010.8
20210926072035 52 0 0.0 0.0 0.00 0.00 0.00 97 1010.8
20210926071555 52 0 0.0 0.0 0.00 0.00 0.00 97 1010.8
20210926071029 52 0 0.0 0.0 0.00 0.00 0.00 97 1010.9
20210926070527 52 0 0.0 0.0 0.00 0.00 0.00 97 1010.9
20210926070110 51 0 0.0 0.0 0.00 0.00 0.00 97 1010.8
20210926065530 51 0 0.0 0.0 0.00 0.00 0.00 97 1010.9
20210926065051 51 0 0.0 0.0 0.00 0.00 0.00 97 1011.2
20210926064608 51 0 0.0 1.0 0.00 0.00 0.00 97 1011.1
20210926064026 51 0 0.0 1.0 0.00 0.00 0.00 97 1011.2
20210926063527 51 0 0.0 0.0 0.00 0.00 0.00 97 1011.2
20210926063051 51 0 0.0 0.0 0.00 0.00 0.00 97 1011.3
20210926062545 51 0 0.0 0.0 0.00 0.00 0.00 97 1011.3
20210926062028 51 0 0.0 0.0 0.00 0.00 0.00 96 1011.3
20210926061553 51 0 0.0 0.0 0.00 0.00 0.00 96 1011.5
20210926061028 51 0 0.0 0.0 0.00 0.00 0.00 96 1011.4
20210926060529 51 0 0.0 0.0 0.00 0.00 0.00 96 1011.6
20210926060110 51 0 0.0 0.0 0.00 0.00 0.00 96 1011.6
20210926055529 52 0 0.0 0.0 0.00 0.01 0.00 96 1011.8
20210926055037 52 0 0.0 0.0 0.00 0.01 0.00 96 1011.8
20210926054553 52 0 0.0 0.0 0.00 0.01 0.00 96 1011.8
20210926054028 52 0 0.0 0.0 0.00 0.01 0.00 96 1011.9
20210926053528 52 0 0.0 0.0 0.00 0.01 0.00 96 1012.0
20210926053100 52 0 0.0 0.0 0.00 0.01 0.00 96 1012.1